{"data":{"norad_id":69666,"intl_designator":"2026-143T","name":"STARLINK-37943","alt_names":[],"object_type":"PAYLOAD","status":"ACTIVE","operator":null,"country":"US","launch_date":"2026-06-21","launch_site_code":"AFWTR","launch_vehicle":null,"mission":null,"orbit_class":"UNKNOWN","rcs_meters":null,"size_class":null,"mass_kg":null,"dimensions":null,"purposes":["comms"],"wikipedia_slug":null,"has_3d_model":false,"image_url":null,"decayed_at":null,"tle_current":{"epoch":"2026-09-20T01:24:15.670944Z","epoch_age_seconds":59819,"freshness":"FRESH","line1":"1 69666U 26143T   26263.05851471  .00014677  00000+0  45594-3 0  9993","line2":"2 69666  97.2853 306.2347 0001115  97.4339 262.7030 15.33453185 15078","mean_motion":15.33453185,"eccentricity":0.0001115,"inclination_deg":97.2853,"raan_deg":306.2347,"arg_perigee_deg":97.4339,"mean_anomaly_deg":262.703,"bstar":0.00045594,"rev_number":1507,"period_min":93.90570342061,"perigee_km":464.75575416096,"apogee_km":466.28188940922,"semimajor_km":6843.6558217851,"source":"CELESTRAK","updated_at":"2026-09-20T09:00:44.250282Z"}}}